Location: Newark
(34.9500°N, 139.9667°E)
Time: 18:04:30
(UTC+00:00)

Transit 2A - Pass Details

Date: 17 December 2019
Orbit: 601 x 958 km, 66.7° (Epoch: 27 January)

Event Time Altitude Azimuth Distance (km) Brightness Sun altitude
Rises 19:33:26 0° 209° (SSW) 3,137 - -25.5°
Reaches altitude 10° 19:35:53 10° 210° (SSW) 2,163 - -25.0°
Maximum altitude 19:40:45 77° 297° (WNW) 679 - -24.1°
Exits shadow 19:41:03 73° 338° (NNW) 688 5.5 -24.0°
Drops below altitude 10° 19:45:15 10° 23° (NNE) 2,004 8.3 -23.2°
Sets 19:47:27 0° 25° (NNE) 2,887 9.1 -22.7°
